Theta_e
311 311 311 311 310 308 314 325 316 327 330 315 316 316 315 308 315 318 315 316 314 312 311 310 309 311 315 318 317 312 315 311 304 306 311 311 310 308 308 302 299 303 300 301
310 310 310 311 310 308 326 322 321 328 328 311 311 316 314 315 315 315 314 312 314 313 310 308 310 313 315 317 317 315 315 311 301 304 308 310 307 308 308 308 309 301 297 299
311 310 310 311 310 309 322 323 314 319 323 323 316 313 312 312 316 315 315 312 313 311 310 312 309 311 313 315 314 315 319 310 304 300 303 306 303 304 306 306 301 300 300 300
311 311 311 311 310 310 324 323 316 320 312 314 317 316 313 310 310 315 315 312 310 310 308 309 309 313 312 314 313 315 316 305 307 306 306 306 304 304 304 303 303 299 301 302
311 311 311 311 310 309 328 320 319 323 319 317 314 312 312 311 312 313 311 310 311 313 312 312 311 312 313 312 315 314 314 306 309 304 305 304 302 304 304 304 304 304 303 303
311 311 311 311 311 314 323 327 330 324 312 314 314 315 313 313 316 316 316 313 313 312 313 317 318 319 318 318 314 313 311 308 307 299 303 303 299 304 304 304 306 305 300 305
311 311 311 311 311 310 326 324 326 320 310 315 315 313 314 313 315 314 315 316 314 315 320 319 319 318 316 316 315 316 309 309 308 302 303 294 305 311 307 305 307 307 305 307
311 311 311 311 311 311 325 326 326 322 313 315 313 313 314 316 316 315 316 318 320 321 316 310 307 308 310 310 313 313 316 311 305 300 300 302 304 307 306 304 304 309 306 307
310 310 312 312 311 311 322 324 328 327 317 315 318 315 315 313 314 315 316 322 325 320 312 308 301 301 304 305 307 314 313 314 307 302 296 294 304 309 312 311 299 309 308 307
310 311 312 312 312 312 318 322 330 326 317 319 322 319 317 320 318 316 317 317 315 318 311 304 303 303 307 302 303 303 305 308 301 300 300 303 310 311 312 299 302 311 309 309
311 311 312 312 312 312 315 324 329 324 319 319 321 321 319 320 319 315 318 315 316 314 308 307 308 307 308 304 308 306 303 302 302 302 299 297 314 310 303 311 313 311 310 309
310 311 312 312 312 312 312 321 327 329 321 318 322 322 322 321 320 320 322 317 316 316 312 312 311 308 310 308 303 312 303 306 304 305 306 316 315 314 316 315 312 311 310 309
310 311 312 312 312 312 312 322 325 326 318 319 319 316 321 324 323 325 318 320 322 321 324 316 313 309 313 306 305 309 311 311 309 310 310 312 314 315 315 315 312 312 310 308
310 310 312 312 312 311 312 321 323 325 320 313 313 323 318 323 323 321 324 324 326 326 320 315 312 308 317 310 310 309 311 314 311 307 310 313 314 314 314 313 312 309 309 309
310 311 312 312 312 311 317 323 322 324 320 312 312 319 319 320 320 318 322 324 325 317 315 314 311 316 315 313 311 309 314 313 309 305 313 311 312 314 313 312 310 308 307 307
310 311 311 311 311 311 323 317 321 321 325 317 309 316 315 317 317 317 319 322 319 317 316 315 315 316 316 308 307 313 316 319 321 313 317 315 314 314 314 312 310 308 308 309
309 309 310 311 310 317 314 312 314 312 325 317 309 310 315 318 318 318 316 319 318 316 317 315 315 314 315 310 306 314 316 318 318 318 318 314 314 313 314 312 310 309 309 310
309 309 310 310 311 310 315 318 314 314 321 316 311 308 312 319 315 311 319 314 314 314 313 315 312 314 314 305 311 315 316 319 317 317 318 316 317 315 314 313 310 308 308 309
308 309 309 318 315 314 315 314 312 324 320 311 313 309 305 317 313 316 315 317 308 316 311 310 313 310 303 307 311 313 314 314 316 319 320 316 314 314 313 312 310 309 308 309
309 314 314 309 314 311 317 319 314 312 316 316 310 314 306 313 315 312 314 315 311 307 310 315 309 305 312 313 314 314 315 315 315 314 315 315 314 314 314 313 311 310 310 309
316 313 311 317 312 318 314 308 307 309 305 311 311 312 310 315 310 310 312 310 311 304 307 309 304 301 309 313 313 315 316 316 316 315 316 318 318 316 315 314 313 311 311 310
311 313 315 318 313 310 303 305 306 306 304 310 309 308 311 314 315 311 312 307 308 301 313 306 299 304 311 312 312 313 315 315 315 316 315 315 316 318 317 315 313 312 313 312
320 313 307 307 307 298 298 297 303 304 311 311 311 309 310 313 314 311 308 301 305 312 305 301 302 308 311 313 313 313 315 315 315 315 316 316 316 318 318 316 314 313 312 312
310 304 292 304 301 305 306 305 306 310 313 311 310 311 308 310 308 307 301 306 306 301 298 297 305 310 311 313 313 313 312 314 315 315 315 316 317 317 317 317 315 313 312 313
306 307 296 303 307 307 308 310 308 311 314 310 310 310 309 307 304 307 304 300 297 300 298 305 307 312 312 312 312 312 312 313 314 313 313 314 315 315 315 317 313 314 314 313
309 308 305 307 306 306 308 308 307 310 311 313 311 305 302 302 302 300 299 297 298 302 304 307 310 312 312 312 313 313 313 313 312 313 315 315 313 314 315 315 313 312 311 311
304 307 312 310 308 306 307 308 307 311 308 305 306 298 299 304 300 299 304 301 306 308 310 310 313 313 312 312 311 312 312 312 312 314 314 315 315 314 311 310 309 310 311 312
Wind_Speed
24 26 26 26 28 32 4 5 3 5 3 8 5 2 4 5 6 7 5 8 8 8 6 7 4 10 11 7 7 5 7 7 8 7 8 4 4 8 7 9 7 7 11 7
25 26 27 26 25 19 8 5 3 3 5 4 6 6 7 3 6 6 4 4 7 4 3 3 3 7 7 7 8 9 8 4 9 8 8 2 6 7 8 5 7 6 10 7
25 26 28 28 26 15 6 6 4 4 1 3 1 10 10 9 6 7 7 3 1 2 1 1 3 8 4 8 10 5 3 3 6 9 9 5 4 6 9 8 8 12 6 6
25 27 28 30 29 25 5 2 4 5 3 5 3 2 5 9 6 3 2 2 4 4 2 2 3 5 9 8 4 5 6 1 1 6 4 4 3 7 7 10 9 6 11 11
24 25 27 30 33 33 2 5 5 4 5 3 4 1 1 6 4 5 5 3 3 6 8 8 10 6 2 4 5 5 3 2 8 6 3 1 1 3 5 6 6 8 10 6
23 24 26 28 31 27 5 4 2 6 3 3 6 6 3 5 7 8 8 4 1 8 7 7 6 5 4 5 7 6 5 1 6 8 4 6 2 10 10 10 9 10 10 11
21 22 24 25 27 22 6 4 6 7 6 3 9 2 2 5 5 8 6 5 4 5 3 6 4 3 4 4 4 5 1 4 5 4 5 1 8 9 5 10 8 9 11 10
20 21 22 23 24 24 6 6 6 6 3 5 5 2 3 7 7 7 9 10 7 4 4 7 5 6 6 2 1 4 5 6 2 5 3 7 4 10 9 11 6 9 11 10
19 20 21 21 22 24 9 8 6 5 1 8 6 3 1 5 8 7 8 7 3 4 8 5 4 4 2 7 7 3 6 6 2 4 3 4 9 9 9 9 2 7 10 10
20 20 20 20 21 21 9 6 8 7 8 7 7 5 7 6 3 5 3 3 3 3 7 6 4 3 6 6 5 3 3 3 4 3 1 8 10 10 10 5 7 10 9 8
18 20 20 20 20 21 11 5 6 7 9 11 14 15 12 4 8 7 5 7 4 6 5 4 0 6 5 2 10 2 4 6 6 4 3 6 12 7 9 6 4 6 6 8
17 18 18 18 20 22 15 4 5 5 5 10 11 13 11 12 12 7 1 3 4 7 8 2 6 3 2 8 3 9 5 7 6 8 6 6 9 7 5 5 7 7 6 6
15 17 17 17 18 20 13 5 7 5 7 9 6 9 11 10 10 9 6 6 6 2 5 8 3 4 7 3 2 12 7 4 4 6 5 8 5 4 5 7 6 6 6 4
16 16 16 16 17 20 17 7 8 5 5 3 6 2 8 8 7 7 6 4 1 4 5 5 3 1 3 8 9 12 10 8 10 8 9 6 5 6 5 5 5 5 6 5
15 15 15 16 16 16 11 4 7 6 6 4 7 6 7 7 5 5 5 4 6 4 4 1 4 4 5 3 6 10 11 9 5 6 11 9 8 5 4 2 4 5 4 4
15 16 17 16 15 12 7 4 5 9 7 5 4 6 5 6 3 4 4 2 3 3 4 5 4 3 5 4 8 10 9 8 6 5 7 8 7 4 2 3 4 4 3 4
15 15 14 14 15 7 5 7 6 10 7 5 5 6 5 2 2 2 4 2 2 5 2 4 5 3 5 10 10 11 10 7 4 2 4 3 2 3 3 4 6 2 3 3
14 13 12 13 10 5 3 4 5 8 6 5 1 4 4 5 2 5 3 3 3 3 2 1 3 2 5 6 8 10 12 11 1 2 3 5 3 5 5 6 6 4 5 5
14 13 12 5 4 2 4 6 8 4 5 3 3 3 6 4 4 2 4 3 4 1 3 3 5 4 7 5 8 10 11 12 12 8 8 3 4 5 5 7 7 7 5 6
12 6 6 3 5 4 8 5 4 3 2 3 3 3 5 5 2 3 2 2 2 4 5 3 6 6 6 5 7 8 10 12 14 13 10 5 7 6 8 7 7 7 6 6
4 2 4 4 2 5 1 0 1 1 3 3 3 7 3 3 6 3 3 3 1 4 6 2 3 5 6 7 8 9 10 11 11 11 12 11 10 9 9 8 8 7 6 6
5 4 4 3 3 2 2 1 3 2 4 2 5 6 4 3 3 4 2 2 2 3 2 3 5 3 6 8 9 11 11 12 13 12 12 13 13 13 11 9 8 8 6 6
5 4 1 3 2 3 2 3 3 4 2 3 3 3 4 4 2 2 3 2 1 1 4 6 4 3 7 8 9 11 12 13 13 14 14 14 14 13 10 10 5 7 6 8
3 1 4 2 3 3 4 8 7 5 2 3 4 2 4 2 2 3 3 4 4 2 1 5 4 7 8 9 11 13 15 16 16 16 16 16 16 13 10 4 5 6 8 7
3 1 0 4 5 6 5 4 6 4 3 5 3 3 3 3 2 2 3 2 3 5 5 4 4 7 8 10 12 12 13 14 12 12 10 11 12 11 11 4 4 5 6 9
2 1 5 6 6 6 5 5 6 6 5 3 3 2 2 1 4 2 1 5 6 4 2 1 3 7 7 8 10 12 12 13 12 11 13 11 10 9 9 3 4 3 4 4
1 3 3 6 8 6 6 6 6 5 6 4 3 4 5 4 3 0 3 5 3 3 3 6 5 6 6 8 10 11 10 13 16 14 12 8 8 7 5 5 4 4 5 7
Wind_Direction
357 353 351 350 350 337 264 279 222 68 280 225 251 157 93 308 111 109 79 49 34 25 347 354 341 52 19 9 328 12 48 312 298 28 61 356 47 7 359 333 328 6 294 81
358 354 351 350 352 360 318 284 53 132 260 254 192 126 127 82 118 25 60 81 37 17 37 292 26 100 40 24 26 20 4 68 299 155 166 217 60 11 359 308 259 305 337 90
360 356 352 350 347 352 293 283 184 131 215 321 131 176 166 123 86 83 58 93 28 227 54 12 172 129 73 70 72 335 330 302 297 346 43 339 59 18 5 5 354 339 44 20
2 358 354 351 346 340 282 324 54 5 77 69 2 247 192 151 143 125 11 124 21 2 259 248 132 113 147 131 152 62 350 340 321 48 40 29 47 34 32 9 16 340 356 37
3 0 358 355 347 335 359 340 326 189 87 167 188 63 2 90 125 327 99 21 30 30 44 1 356 332 278 125 142 64 349 85 283 149 115 27 90 97 360 27 359 349 356 41
5 1 0 0 357 342 35 2 145 275 168 167 247 54 21 93 110 30 50 42 138 74 32 6 11 5 17 21 332 74 332 221 265 183 91 246 36 22 6 355 356 13 354 6
4 1 0 2 359 5 354 22 285 276 124 338 44 60 294 89 358 107 62 20 46 54 308 297 232 243 229 196 109 310 162 285 297 39 249 197 72 45 347 342 48 26 3 9
3 2 360 360 358 356 345 8 326 332 68 90 109 86 126 128 119 101 78 70 59 348 286 277 210 200 227 33 162 133 353 319 129 302 186 98 150 48 3 344 30 41 359 345
3 1 358 356 356 353 314 52 308 294 264 59 338 352 246 164 123 149 126 90 51 300 278 232 258 250 142 139 218 142 195 234 273 346 293 40 64 27 350 312 158 8 354 351
2 358 355 353 353 352 323 44 359 274 95 47 338 16 8 338 332 76 129 33 268 261 267 255 249 173 302 52 86 238 246 253 346 86 263 92 32 349 311 290 33 3 359 3
358 358 353 351 351 348 340 78 12 327 87 56 47 39 28 15 347 6 58 233 199 257 285 298 64 6 80 135 183 309 109 316 62 270 280 83 11 2 5 15 29 359 22 8
353 353 350 350 349 344 340 34 13 327 23 93 81 67 49 37 30 338 208 22 24 13 299 44 254 173 103 73 47 65 51 29 7 4 53 51 30 49 37 16 29 20 25 40
348 349 346 349 350 342 346 -0 2 269 142 146 97 43 48 26 31 23 315 86 351 112 320 325 214 183 58 40 138 86 96 7 53 135 71 34 74 70 47 39 44 42 59 45
347 345 343 344 349 340 327 30 357 305 314 146 95 162 48 23 12 30 36 16 22 271 253 271 345 28 30 63 71 51 8 329 30 40 19 78 123 56 68 75 62 62 46 61
344 342 340 339 342 332 301 33 35 19 324 36 108 134 38 26 17 35 50 24 303 255 202 297 64 56 328 37 102 45 1 9 20 38 32 358 45 80 101 99 62 53 89 104
339 339 338 333 330 330 271 167 72 14 334 277 134 91 29 52 40 56 64 36 292 320 337 62 86 0 291 3 88 40 11 18 360 39 27 52 64 75 72 80 79 91 97 115
331 330 328 325 331 318 355 17 -0 331 300 274 161 132 75 17 225 73 101 172 50 343 112 23 63 62 297 32 50 16 9 357 357 63 347 85 206 76 130 111 96 134 86 129
324 320 316 311 320 271 171 73 353 324 281 274 289 102 159 340 21 101 285 119 154 14 85 201 59 112 66 60 7 22 8 350 45 313 13 317 50 144 154 145 160 164 173 156
315 305 300 275 237 35 47 349 297 264 304 335 310 1 82 242 97 140 137 279 89 259 90 94 256 86 53 19 16 18 14 5 347 309 285 278 246 223 183 193 189 218 160 173
303 279 222 120 40 314 278 186 206 196 169 257 59 257 82 297 276 111 210 294 71 174 66 262 97 83 78 34 34 17 10 6 3 1 343 281 263 250 235 227 221 233 175 171
234 307 49 56 135 246 287 124 292 220 136 14 58 6 15 31 343 30 -0 356 8 227 109 246 130 87 64 25 18 12 1 355 354 350 342 326 299 282 267 233 227 222 189 186
349 309 244 245 252 2 272 108 173 352 53 70 5 39 350 49 297 283 55 310 228 55 99 249 76 66 44 14 -0 357 348 345 342 338 332 324 314 294 267 249 214 218 196 176
220 224 77 29 121 24 276 136 152 119 49 31 329 110 329 183 247 282 288 265 59 37 233 73 81 51 29 3 353 345 348 345 336 339 334 325 314 304 266 261 203 190 178 186
342 86 13 279 119 68 32 45 57 70 24 28 321 53 353 2 349 327 285 41 265 270 20 74 73 25 8 351 351 346 348 347 347 349 343 334 323 315 289 214 281 176 178 191
15 315 68 82 83 88 91 85 84 53 341 342 290 207 291 48 266 341 4 233 236 33 68 76 37 13 351 356 357 350 354 343 341 331 327 330 328 315 317 194 220 220 194 180
359 264 127 125 122 116 87 60 64 13 329 258 261 310 345 2 323 268 20 298 41 79 49 28 13 10 355 358 339 350 346 346 349 326 324 327 332 330 330 283 232 237 202 231
347 99 358 41 61 66 55 34 17 329 299 22 333 297 27 306 295 286 3 32 69 347 12 24 45 344 351 341 339 340 350 356 349 334 329 338 325 328 320 287 292 269 254 258